| time (UTC) | temp F | wind direction | speed MPH | gust MPH | rain 1hr in | rain 24hr in | rain mn in | humidity % | barometer mb |
| 20260903010511 | 78 | 183 | 0.0 | 0.0 | 0.00 | 0.37 | 0.37 | 93 | 1016.2 |
| 20260903010013 | 78 | 183 | 0.0 | 0.0 | 0.00 | 0.37 | 0.37 | 93 | 1016.2 |
| 20260903005511 | 78 | 183 | 0.0 | 0.0 | 0.00 | 0.37 | 0.37 | 93 | 1015.9 |
| 20260903005011 | 78 | 183 | 0.0 | 0.0 | 0.00 | 0.37 | 0.37 | 93 | 1015.8 |
| 20260903004511 | 78 | 183 | 0.0 | 0.0 | 0.00 | 0.37 | 0.37 | 92 | 1015.8 |
| 20260903004011 | 78 | 183 | 0.0 | 0.0 | 0.00 | 0.37 | 0.37 | 92 | 1015.7 |
| 20260903003510 | 78 | 182 | 0.0 | 0.0 | 0.00 | 0.37 | 0.37 | 93 | 1015.7 |
| 20260903003011 | 79 | 183 | 0.0 | 0.0 | 0.00 | 0.37 | 0.37 | 93 | 1015.7 |
| 20260903002511 | 79 | 182 | 0.0 | 0.0 | 0.00 | 0.37 | 0.37 | 93 | 1015.6 |
| 20260903002009 | 79 | 183 | 0.0 | 0.0 | 0.00 | 0.37 | 0.37 | 93 | 1015.8 |
| 20260903001509 | 79 | 183 | 0.0 | 0.0 | 0.00 | 0.37 | 0.37 | 93 | 1015.8 |
| 20260903001009 | 79 | 183 | 0.0 | 0.0 | 0.00 | 0.37 | 0.37 | 93 | 1015.9 |
| 20260903000508 | 79 | 183 | 0.0 | 0.0 | 0.00 | 0.37 | 0.37 | 93 | 1015.8 |
| 20260903000008 | 79 | 182 | 0.0 | 0.0 | 0.00 | 0.37 | 0.37 | 93 | 1015.8 |
| 20260902235509 | 79 | 183 | 0.0 | 0.0 | 0.00 | 0.37 | 0.37 | 93 | 1015.8 |
| 20260902235011 | 79 | 182 | 0.0 | 0.0 | 0.00 | 0.37 | 0.37 | 92 | 1015.8 |
| 20260902234510 | 79 | 182 | 0.0 | 0.0 | 0.00 | 0.37 | 0.37 | 92 | 1015.7 |
| 20260902234007 | 79 | 183 | 0.0 | 0.0 | 0.00 | 0.37 | 0.37 | 92 | 1015.7 |
| 20260902233508 | 79 | 183 | 0.0 | 0.0 | 0.00 | 0.37 | 0.37 | 92 | 1015.6 |
| 20260902233007 | 79 | 236 | 0.0 | 0.0 | 0.00 | 0.37 | 0.37 | 92 | 1015.6 |
| 20260902232510 | 79 | 236 | 0.0 | 0.0 | 0.00 | 0.37 | 0.37 | 92 | 1015.7 |
| 20260902232006 | 79 | 236 | 0.0 | 0.0 | 0.00 | 0.37 | 0.37 | 92 | 1015.7 |
| 20260902231507 | 79 | 236 | 0.0 | 0.0 | 0.00 | 0.37 | 0.37 | 92 | 1015.6 |
| 20260902231007 | 79 | 266 | 0.0 | 0.0 | 0.00 | 0.37 | 0.37 | 92 | 1015.6 |
| 20260902230506 | 79 | 266 | 0.0 | 0.0 | 0.00 | 0.37 | 0.37 | 92 | 1015.5 |
| 20260902230005 | 79 | 266 | 0.0 | 0.0 | 0.00 | 0.37 | 0.37 | 92 | 1015.6 |
| 20260902225506 | 79 | 266 | 0.0 | 0.0 | 0.00 | 0.37 | 0.37 | 92 | 1015.7 |
| 20260902225006 | 79 | 266 | 0.0 | 0.0 | 0.00 | 0.37 | 0.37 | 93 | 1015.7 |
| 20260902224506 | 79 | 266 | 0.0 | 0.0 | 0.04 | 0.37 | 0.37 | 93 | 1015.6 |
| 20260902224008 | 79 | 265 | 0.0 | 1.0 | 0.04 | 0.37 | 0.37 | 93 | 1015.6 |
| 20260902223509 | 79 | 265 | 0.0 | 1.0 | 0.04 | 0.37 | 0.37 | 93 | 1015.6 |
| 20260902223018 | 79 | 265 | 0.0 | 1.0 | 0.04 | 0.37 | 0.37 | 93 | 1015.7 |
| 20260902222505 | 80 | 265 | 0.0 | 0.0 | 0.04 | 0.37 | 0.37 | 93 | 1015.8 |
| 20260902222006 | 80 | 24 | 0.0 | 0.0 | 0.04 | 0.37 | 0.37 | 93 | 1015.8 |
| 20260902221504 | 80 | 24 | 0.0 | 0.0 | 0.04 | 0.37 | 0.37 | 94 | 1015.7 |
| 20260902221004 | 80 | 24 | 0.0 | 0.0 | 0.05 | 0.37 | 0.37 | 93 | 1015.6 |
| 20260902220504 | 80 | 28 | 0.0 | 0.0 | 0.05 | 0.37 | 0.37 | 93 | 1015.7 |
| 20260902220005 | 80 | 28 | 0.0 | 0.0 | 0.05 | 0.37 | 0.37 | 93 | 1015.7 |
| 20260902215504 | 80 | 28 | 0.0 | 0.0 | 0.05 | 0.37 | 0.37 | 93 | 1015.7 |
| 20260902215003 | 80 | 28 | 0.0 | 0.0 | 0.05 | 0.37 | 0.37 | 93 | 1015.7 |
| 20260902214503 | 80 | 123 | 0.0 | 0.0 | 0.01 | 0.33 | 0.33 | 93 | 1015.7 |
| 20260902214005 | 80 | 122 | 0.0 | 0.0 | 0.01 | 0.33 | 0.33 | 93 | 1015.8 |
| 20260902213506 | 80 | 123 | 0.0 | 0.0 | 0.02 | 0.33 | 0.33 | 93 | 1015.8 |
| 20260902213002 | 80 | 122 | 0.0 | 0.0 | 0.13 | 0.33 | 0.33 | 94 | 1015.7 |
| 20260902212502 | 80 | 123 | 0.0 | 0.0 | 0.28 | 0.33 | 0.33 | 94 | 1015.8 |
| 20260902212006 | 80 | 123 | 0.0 | 0.0 | 0.28 | 0.33 | 0.33 | 93 | 1015.8 |
| 20260902211501 | 80 | 122 | 0.0 | 0.0 | 0.28 | 0.33 | 0.33 | 93 | 1015.8 |
| 20260902211001 | 79 | 122 | 0.0 | 0.0 | 0.28 | 0.32 | 0.32 | 93 | 1015.9 |
| 20260902210502 | 79 | 123 | 0.0 | 0.0 | 0.28 | 0.32 | 0.32 | 93 | 1016.0 |
| 20260902210001 | 79 | 122 | 0.0 | 0.0 | 0.30 | 0.32 | 0.32 | 93 | 1016.0 |
| 20260902205500 | 79 | 123 | 0.0 | 0.0 | 0.30 | 0.32 | 0.32 | 93 | 1015.9 |
| 20260902205100 | 79 | 122 | 0.0 | 0.0 | 0.32 | 0.32 | 0.32 | 92 | 1016.0 |
| 20260902205002 | 79 | 123 | 0.0 | 0.0 | 0.32 | 0.32 | 0.32 | 92 | 1015.9 |
| 20260902204601 | 79 | 123 | 0.0 | 0.0 | 0.32 | 0.32 | 0.32 | 92 | 1015.9 |
| 20260902204101 | 79 | 123 | 0.0 | 3.0 | 0.32 | 0.32 | 0.32 | 92 | 1015.9 |
| 20260902203603 | 79 | 122 | 0.0 | 3.0 | 0.31 | 0.31 | 0.31 | 91 | 1016.0 |
| 20260902203107 | 80 | 130 | 0.0 | 2.0 | 0.20 | 0.20 | 0.20 | 91 | 1016.1 |
| 20260902202559 | 80 | 130 | 0.0 | 0.0 | 0.04 | 0.04 | 0.04 | 91 | 1016.1 |
| 20260902202059 | 80 | 130 | 0.0 | 1.0 | 0.04 | 0.04 | 0.04 | 91 | 1016.1 |
| 20260902201606 | 80 | 130 | 0.0 | 2.0 | 0.04 | 0.04 | 0.04 | 90 | 1016.1 |
| 20260902201103 | 80 | 130 | 0.0 | 2.0 | 0.04 | 0.04 | 0.04 | 89 | 1016.2 |
| 20260902200559 | 81 | 130 | 0.0 | 6.0 | 0.03 | 0.03 | 0.03 | 88 | 1016.1 |
| 20260902200134 | 82 | 117 | 2.0 | 7.0 | 0.02 | 0.02 | 0.02 | 86 | 1016.1 |
| 20260902195557 | 84 | 117 | 2.0 | 12.0 | 0.02 | 0.02 | 0.02 | 84 | 1016.0 |
| 20260902195057 | 85 | 101 | 3.0 | 12.0 | 0.00 | 0.00 | 0.00 | 81 | 1016.1 |
| 20260902194558 | 86 | 63 | 1.0 | 6.0 | 0.00 | 0.00 | 0.00 | 81 | 1015.9 |
| 20260902194101 | 86 | 59 | 1.0 | 3.0 | 0.00 | 0.00 | 0.00 | 80 | 1015.9 |
| 20260902193559 | 87 | 41 | 0.0 | 2.0 | 0.00 | 0.00 | 0.00 | 80 | 1016.0 |
| 20260902193057 | 87 | 87 | 0.0 | 2.0 | 0.00 | 0.00 | 0.00 | 79 | 1015.9 |
| 20260902192557 | 87 | 89 | 0.0 | 2.0 | 0.00 | 0.00 | 0.00 | 79 | 1015.9 |
| 20260902192057 | 88 | 40 | 0.0 | 3.0 | 0.00 | 0.00 | 0.00 | 78 | 1016.0 |
| 20260902191557 | 89 | 87 | 0.0 | 3.0 | 0.00 | 0.00 | 0.00 | 76 | 1016.0 |
| 20260902191056 | 89 | 84 | 1.0 | 5.0 | 0.00 | 0.00 | 0.00 | 76 | 1016.0 |
| 20260902190557 | 90 | 42 | 2.0 | 5.0 | 0.00 | 0.00 | 0.00 | 76 | 1016.1 |
| 20260902190103 | 90 | 82 | 1.0 | 4.0 | 0.00 | 0.00 | 0.00 | 76 | 1016.0 |
| 20260902185600 | 90 | 67 | 1.0 | 4.0 | 0.00 | 0.00 | 0.00 | 76 | 1016.1 |
| 20260902185059 | 89 | 101 | 0.0 | 5.0 | 0.00 | 0.00 | 0.00 | 78 | 1016.2 |
| 20260902184556 | 88 | 51 | 1.0 | 5.0 | 0.00 | 0.00 | 0.00 | 78 | 1016.3 |
| 20260902184056 | 88 | 76 | 0.0 | 9.0 | 0.00 | 0.00 | 0.00 | 77 | 1016.3 |
| 20260902183557 | 89 | 119 | 2.0 | 9.0 | 0.00 | 0.00 | 0.00 | 77 | 1016.2 |
| 20260902183107 | 89 | 87 | 2.0 | 8.0 | 0.00 | 0.00 | 0.00 | 77 | 1016.2 |
| 20260902182555 | 89 | 88 | 1.0 | 3.0 | 0.00 | 0.00 | 0.00 | 76 | 1016.3 |
| 20260902182055 | 88 | 100 | 1.0 | 6.0 | 0.00 | 0.00 | 0.00 | 78 | 1016.4 |
| 20260902181555 | 88 | 116 | 0.0 | 3.0 | 0.00 | 0.00 | 0.00 | 79 | 1016.3 |
| 20260902181057 | 88 | 92 | 0.0 | 3.0 | 0.00 | 0.00 | 0.00 | 79 | 1016.4 |
| 20260902180554 | 88 | 114 | 0.0 | 3.0 | 0.00 | 0.00 | 0.00 | 79 | 1016.4 |
| 20260902180055 | 88 | 69 | 0.0 | 1.0 | 0.00 | 0.00 | 0.00 | 77 | 1016.5 |
| 20260902175554 | 89 | 69 | 0.0 | 3.0 | 0.00 | 0.00 | 0.00 | 76 | 1016.5 |
| 20260902175054 | 90 | 69 | 1.0 | 4.0 | 0.00 | 0.00 | 0.00 | 75 | 1016.6 |
| 20260902174554 | 90 | 86 | 2.0 | 4.0 | 0.00 | 0.00 | 0.00 | 72 | 1016.5 |
| 20260902174052 | 91 | 92 | 1.0 | 4.0 | 0.00 | 0.00 | 0.00 | 73 | 1016.5 |
| 20260902173551 | 90 | 89 | 1.0 | 9.0 | 0.00 | 0.00 | 0.00 | 72 | 1016.5 |
| 20260902173051 | 90 | 35 | 2.0 | 9.0 | 0.00 | 0.00 | 0.00 | 74 | 1016.5 |
| 20260902172549 | 90 | 78 | 1.0 | 6.0 | 0.00 | 0.00 | 0.00 | 75 | 1016.5 |
| 20260902172049 | 89 | 78 | 1.0 | 6.0 | 0.00 | 0.00 | 0.00 | 77 | 1016.5 |
| 20260902171550 | 88 | 30 | 1.0 | 3.0 | 0.00 | 0.00 | 0.00 | 79 | 1016.7 |
| 20260902171053 | 88 | 80 | 0.0 | 5.0 | 0.00 | 0.00 | 0.00 | 79 | 1016.7 |
| 20260902170549 | 88 | 82 | 1.0 | 5.0 | 0.00 | 0.00 | 0.00 | 78 | 1016.7 |
| 20260902170050 | 88 | 57 | 0.0 | 3.0 | 0.00 | 0.00 | 0.00 | 78 | 1016.9 |
| 20260902165550 | 87 | 52 | 0.0 | 3.0 | 0.00 | 0.00 | 0.00 | 77 | 1017.0 |
| 20260902165052 | 88 | 82 | 1.0 | 4.0 | 0.00 | 0.00 | 0.00 | 77 | 1017.1 |
| 20260902164547 | 89 | 59 | 2.0 | 4.0 | 0.00 | 0.00 | 0.00 | 76 | 1017.1 |
| 20260902164047 | 89 | 52 | 1.0 | 4.0 | 0.00 | 0.00 | 0.00 | 75 | 1017.0 |
| 20260902163547 | 89 | 87 | 1.0 | 2.0 | 0.00 | 0.00 | 0.00 | 75 | 1017.0 |
| 20260902163046 | 89 | 73 | 1.0 | 3.0 | 0.00 | 0.00 | 0.00 | 75 | 1017.1 |
| 20260902162546 | 89 | 65 | 1.0 | 3.0 | 0.00 | 0.00 | 0.00 | 76 | 1017.3 |
| 20260902162045 | 89 | 82 | 0.0 | 3.0 | 0.00 | 0.00 | 0.00 | 74 | 1017.4 |
| 20260902161551 | 89 | 86 | 1.0 | 3.0 | 0.00 | 0.00 | 0.00 | 76 | 1017.3 |
| 20260902161043 | 88 | 88 | 1.0 | 4.0 | 0.00 | 0.00 | 0.00 | 76 | 1017.3 |
| 20260902160543 | 88 | 80 | 1.0 | 4.0 | 0.00 | 0.00 | 0.00 | 77 | 1017.3 |
| 20260902160044 | 87 | 17 | 0.0 | 3.0 | 0.00 | 0.00 | 0.00 | 77 | 1017.5 |
| 20260902155543 | 88 | 82 | 0.0 | 4.0 | 0.00 | 0.00 | 0.00 | 77 | 1017.7 |
| 20260902155046 | 88 | 35 | 1.0 | 4.0 | 0.00 | 0.00 | 0.00 | 79 | 1017.6 |
| 20260902154547 | 88 | 49 | 0.0 | 3.0 | 0.00 | 0.00 | 0.00 | 78 | 1017.8 |
| 20260902154045 | 89 | 74 | 0.0 | 6.0 | 0.00 | 0.00 | 0.00 | 78 | 1017.9 |
| 20260902153542 | 88 | 42 | 1.0 | 6.0 | 0.00 | 0.00 | 0.00 | 78 | 1017.9 |
| 20260902153041 | 88 | 123 | 0.0 | 3.0 | 0.00 | 0.00 | 0.00 | 80 | 1017.8 |
| 20260902152541 | 87 | 44 | 1.0 | 3.0 | 0.00 | 0.00 | 0.00 | 80 | 1017.9 |
| 20260902152040 | 87 | 64 | 1.0 | 6.0 | 0.00 | 0.00 | 0.00 | 80 | 1017.8 |
| 20260902151538 | 87 | 58 | 1.0 | 6.0 | 0.00 | 0.00 | 0.00 | 81 | 1017.8 |
| 20260902151037 | 86 | 28 | 0.0 | 3.0 | 0.00 | 0.00 | 0.00 | 82 | 1017.8 |
| 20260902150539 | 86 | 311 | 1.0 | 3.0 | 0.00 | 0.00 | 0.00 | 84 | 1017.9 |
| 20260902150035 | 85 | 75 | 0.0 | 4.0 | 0.00 | 0.00 | 0.00 | 83 | 1017.8 |
| 20260902145534 | 86 | 54 | 0.0 | 4.0 | 0.00 | 0.00 | 0.00 | 84 | 1017.8 |
| 20260902145034 | 86 | 128 | 1.0 | 3.0 | 0.00 | 0.00 | 0.00 | 84 | 1017.7 |
| 20260902144533 | 86 | 44 | 0.0 | 3.0 | 0.00 | 0.00 | 0.00 | 85 | 1017.8 |
| 20260902144033 | 86 | 44 | 0.0 | 4.0 | 0.00 | 0.00 | 0.00 | 84 | 1017.8 |
| 20260902143533 | 86 | 73 | 0.0 | 4.0 | 0.00 | 0.00 | 0.00 | 84 | 1017.7 |
| 20260902143031 | 85 | 70 | 0.0 | 4.0 | 0.00 | 0.00 | 0.00 | 85 | 1017.6 |
| 20260902142529 | 85 | 106 | 0.0 | 3.0 | 0.00 | 0.00 | 0.00 | 86 | 1017.7 |
| 20260902142029 | 84 | 90 | 0.0 | 1.0 | 0.00 | 0.00 | 0.00 | 86 | 1017.5 |
| 20260902141535 | 84 | 73 | 0.0 | 4.0 | 0.00 | 0.00 | 0.00 | 86 | 1017.4 |
| 20260902141026 | 84 | 83 | 0.0 | 4.0 | 0.00 | 0.00 | 0.00 | 86 | 1017.4 |
| 20260902140525 | 84 | 34 | 1.0 | 4.0 | 0.00 | 0.00 | 0.00 | 87 | 1017.5 |
| 20260902140023 | 83 | 82 | 0.0 | 0.0 | 0.00 | 0.00 | 0.00 | 87 | 1017.5 |
| 20260902135522 | 83 | 63 | 0.0 | 0.0 | 0.00 | 0.00 | 0.00 | 88 | 1017.5 |
| 20260902135021 | 83 | 34 | 0.0 | 0.0 | 0.00 | 0.00 | 0.00 | 89 | 1017.5 |
| 20260902134519 | 82 | 65 | 0.0 | 0.0 | 0.00 | 0.00 | 0.00 | 90 | 1017.5 |
| 20260902134018 | 82 | 59 | 0.0 | 0.0 | 0.00 | 0.00 | 0.00 | 91 | 1017.6 |
| 20260902133516 | 81 | 34 | 0.0 | 0.0 | 0.00 | 0.00 | 0.00 | 93 | 1017.5 |
| 20260902133015 | 81 | 33 | 0.0 | 0.0 | 0.00 | 0.00 | 0.00 | 93 | 1017.6 |
| 20260902132517 | 80 | 34 | 0.0 | 0.0 | 0.00 | 0.00 | 0.00 | 93 | 1017.6 |
| 20260902132014 | 80 | 77 | 0.0 | 0.0 | 0.00 | 0.00 | 0.00 | 94 | 1017.6 |
| 20260902131521 | 80 | 78 | 0.0 | 0.0 | 0.00 | 0.00 | 0.00 | 94 | 1017.6 |
| 20260902131012 | 80 | 78 | 0.0 | 0.0 | 0.00 | 0.00 | 0.00 | 95 | 1017.7 |
| 20260902130510 | 79 | 78 | 0.0 | 0.0 | 0.00 | 0.00 | 0.00 | 95 | 1017.6 |
| 20260902130010 | 79 | 78 | 0.0 | 1.0 | 0.00 | 0.00 | 0.00 | 95 | 1017.5 |
| 20260902125508 | 79 | 78 | 0.0 | 1.0 | 0.00 | 0.00 | 0.00 | 95 | 1017.5 |
| 20260902125008 | 79 | 101 | 0.0 | 0.0 | 0.00 | 0.00 | 0.00 | 95 | 1017.5 |
| 20260902124507 | 78 | 101 | 0.0 | 0.0 | 0.00 | 0.00 | 0.00 | 95 | 1017.4 |
| 20260902124006 | 78 | 126 | 0.0 | 0.0 | 0.00 | 0.00 | 0.00 | 95 | 1017.4 |
| 20260902123506 | 78 | 126 | 0.0 | 0.0 | 0.00 | 0.00 | 0.00 | 95 | 1017.4 |
| 20260902123005 | 78 | 126 | 0.0 | 0.0 | 0.00 | 0.00 | 0.00 | 95 | 1017.3 |
| 20260902122507 | 78 | 126 | 0.0 | 0.0 | 0.00 | 0.00 | 0.00 | 95 | 1017.5 |
| 20260902122004 | 77 | 126 | 0.0 | 0.0 | 0.00 | 0.00 | 0.00 | 95 | 1017.4 |
| 20260902121504 | 77 | 126 | 0.0 | 0.0 | 0.00 | 0.00 | 0.00 | 95 | 1017.5 |
| 20260902121004 | 77 | 126 | 0.0 | 0.0 | 0.00 | 0.00 | 0.00 | 95 | 1017.5 |
| 20260902120504 | 77 | 126 | 0.0 | 0.0 | 0.00 | 0.00 | 0.00 | 95 | 1017.5 |
| 20260902120003 | 77 | 126 | 0.0 | 0.0 | 0.00 | 0.00 | 0.00 | 95 | 1017.4 |
| 20260902115501 | 77 | 126 | 0.0 | 0.0 | 0.00 | 0.00 | 0.00 | 95 | 1017.4 |
| 20260902115106 | 76 | 126 | 0.0 | 0.0 | 0.00 | 0.00 | 0.00 | 94 | 1017.3 |
| 20260902114600 | 76 | 126 | 0.0 | 0.0 | 0.00 | 0.00 | 0.00 | 94 | 1017.2 |
| 20260902114058 | 76 | 126 | 0.0 | 0.0 | 0.00 | 0.00 | 0.00 | 94 | 1017.1 |
| 20260902113559 | 76 | 126 | 0.0 | 0.0 | 0.00 | 0.00 | 0.00 | 94 | 1017.1 |
| 20260902113112 | 76 | 126 | 0.0 | 0.0 | 0.00 | 0.00 | 0.00 | 94 | 1017.2 |
| 20260902112559 | 76 | 126 | 0.0 | 0.0 | 0.00 | 0.00 | 0.00 | 94 | 1017.2 |
| 20260902112059 | 76 | 126 | 0.0 | 0.0 | 0.00 | 0.00 | 0.00 | 94 | 1017.1 |
| 20260902111602 | 76 | 126 | 0.0 | 0.0 | 0.00 | 0.00 | 0.00 | 94 | 1017.0 |
| 20260902111057 | 76 | 126 | 0.0 | 0.0 | 0.00 | 0.00 | 0.00 | 94 | 1016.9 |
| 20260902110558 | 76 | 126 | 0.0 | 0.0 | 0.00 | 0.00 | 0.00 | 94 | 1017.0 |
| 20260902110058 | 76 | 126 | 0.0 | 0.0 | 0.00 | 0.00 | 0.00 | 94 | 1016.9 |
| 20260902105557 | 76 | 126 | 0.0 | 0.0 | 0.00 | 0.00 | 0.00 | 94 | 1016.9 |
| 20260902105056 | 76 | 126 | 0.0 | 0.0 | 0.00 | 0.00 | 0.00 | 94 | 1016.9 |
| 20260902104557 | 76 | 126 | 0.0 | 0.0 | 0.00 | 0.00 | 0.00 | 94 | 1016.9 |
| 20260902104055 | 76 | 126 | 0.0 | 0.0 | 0.00 | 0.00 | 0.00 | 94 | 1017.0 |
| 20260902103554 | 76 | 126 | 0.0 | 0.0 | 0.00 | 0.00 | 0.00 | 94 | 1016.8 |
| 20260902103053 | 76 | 126 | 0.0 | 0.0 | 0.00 | 0.00 | 0.00 | 94 | 1016.7 |
| 20260902102556 | 76 | 126 | 0.0 | 0.0 | 0.00 | 0.00 | 0.00 | 94 | 1016.7 |
| 20260902102053 | 77 | 126 | 0.0 | 0.0 | 0.00 | 0.00 | 0.00 | 94 | 1016.8 |
| 20260902101605 | 77 | 126 | 0.0 | 0.0 | 0.00 | 0.00 | 0.00 | 94 | 1016.7 |
| 20260902101052 | 77 | 126 | 0.0 | 0.0 | 0.00 | 0.00 | 0.00 | 94 | 1016.6 |
| 20260902100552 | 77 | 126 | 0.0 | 0.0 | 0.00 | 0.00 | 0.00 | 94 | 1016.6 |
| 20260902100052 | 77 | 126 | 0.0 | 0.0 | 0.00 | 0.00 | 0.00 | 94 | 1016.5 |
| 20260902095554 | 77 | 126 | 0.0 | 0.0 | 0.00 | 0.00 | 0.00 | 94 | 1016.4 |
| 20260902095050 | 77 | 126 | 0.0 | 0.0 | 0.00 | 0.00 | 0.00 | 94 | 1016.3 |
| 20260902094552 | 77 | 126 | 0.0 | 0.0 | 0.00 | 0.00 | 0.00 | 94 | 1016.2 |
| 20260902094050 | 77 | 126 | 0.0 | 0.0 | 0.00 | 0.00 | 0.00 | 94 | 1016.3 |
| 20260902093553 | 77 | 126 | 0.0 | 0.0 | 0.00 | 0.00 | 0.00 | 94 | 1016.2 |
| 20260902093050 | 77 | 126 | 0.0 | 0.0 | 0.00 | 0.00 | 0.00 | 94 | 1016.1 |
| 20260902092553 | 77 | 126 | 0.0 | 0.0 | 0.00 | 0.00 | 0.00 | 94 | 1016.1 |
| 20260902092049 | 77 | 126 | 0.0 | 0.0 | 0.00 | 0.00 | 0.00 | 94 | 1016.0 |
| 20260902091551 | 77 | 126 | 0.0 | 0.0 | 0.00 | 0.00 | 0.00 | 94 | 1016.0 |
| 20260902091049 | 77 | 126 | 0.0 | 0.0 | 0.00 | 0.00 | 0.00 | 94 | 1016.0 |
| 20260902090551 | 77 | 126 | 0.0 | 0.0 | 0.00 | 0.00 | 0.00 | 94 | 1015.9 |
| 20260902090049 | 77 | 126 | 0.0 | 0.0 | 0.00 | 0.00 | 0.00 | 94 | 1016.0 |
| 20260902085550 | 77 | 126 | 0.0 | 0.0 | 0.00 | 0.00 | 0.00 | 94 | 1015.9 |
| 20260902085047 | 77 | 126 | 0.0 | 0.0 | 0.00 | 0.00 | 0.00 | 94 | 1015.9 |
| 20260902084552 | 77 | 126 | 0.0 | 0.0 | 0.00 | 0.00 | 0.00 | 94 | 1015.8 |
| 20260902084047 | 77 | 126 | 0.0 | 0.0 | 0.00 | 0.00 | 0.00 | 94 | 1016.0 |
| 20260902083547 | 77 | 126 | 0.0 | 0.0 | 0.00 | 0.00 | 0.00 | 94 | 1016.1 |
| 20260902083047 | 77 | 126 | 0.0 | 0.0 | 0.00 | 0.00 | 0.00 | 94 | 1016.1 |
| 20260902082547 | 76 | 126 | 0.0 | 0.0 | 0.00 | 0.00 | 0.00 | 94 | 1016.0 |
| 20260902082047 | 77 | 126 | 0.0 | 0.0 | 0.00 | 0.00 | 0.00 | 94 | 1016.1 |
| 20260902081551 | 77 | 126 | 0.0 | 0.0 | 0.00 | 0.00 | 0.00 | 94 | 1016.1 |
| 20260902081046 | 77 | 126 | 0.0 | 0.0 | 0.00 | 0.00 | 0.00 | 94 | 1016.2 |
| 20260902080547 | 77 | 126 | 0.0 | 0.0 | 0.00 | 0.00 | 0.00 | 94 | 1016.1 |
| 20260902080051 | 76 | 126 | 0.0 | 0.0 | 0.00 | 0.00 | 0.00 | 94 | 1016.1 |
| 20260902075546 | 76 | 126 | 0.0 | 0.0 | 0.00 | 0.00 | 0.00 | 94 | 1016.1 |
| 20260902075050 | 76 | 126 | 0.0 | 0.0 | 0.00 | 0.00 | 0.00 | 94 | 1016.2 |
| 20260902074545 | 76 | 126 | 0.0 | 0.0 | 0.00 | 0.00 | 0.00 | 94 | 1016.1 |
| 20260902074045 | 76 | 126 | 0.0 | 0.0 | 0.00 | 0.00 | 0.00 | 93 | 1016.1 |
| 20260902073544 | 76 | 126 | 0.0 | 0.0 | 0.00 | 0.00 | 0.00 | 93 | 1016.2 |
| 20260902073044 | 76 | 126 | 0.0 | 0.0 | 0.00 | 0.00 | 0.00 | 93 | 1016.2 |
| 20260902072544 | 76 | 126 | 0.0 | 0.0 | 0.00 | 0.00 | 0.00 | 93 | 1016.2 |
| 20260902072047 | 76 | 126 | 0.0 | 0.0 | 0.00 | 0.00 | 0.00 | 93 | 1016.1 |
| 20260902071544 | 76 | 126 | 0.0 | 0.0 | 0.00 | 0.00 | 0.00 | 93 | 1016.2 |
| 20260902071044 | 76 | 126 | 0.0 | 0.0 | 0.00 | 0.00 | 0.00 | 93 | 1016.3 |
| 20260902070542 | 76 | 126 | 0.0 | 0.0 | 0.00 | 0.00 | 0.00 | 93 | 1016.3 |
| 20260902070044 | 76 | 126 | 0.0 | 0.0 | 0.00 | 0.00 | 0.00 | 93 | 1016.1 |
| 20260902065545 | 76 | 126 | 0.0 | 0.0 | 0.00 | 0.00 | 0.00 | 93 | 1016.1 |
| 20260902065045 | 76 | 126 | 0.0 | 0.0 | 0.00 | 0.00 | 0.00 | 93 | 1016.2 |
| 20260902064544 | 76 | 126 | 0.0 | 0.0 | 0.00 | 0.00 | 0.00 | 93 | 1016.2 |
| 20260902064041 | 76 | 126 | 0.0 | 0.0 | 0.00 | 0.00 | 0.00 | 93 | 1016.2 |
| 20260902063541 | 76 | 126 | 0.0 | 0.0 | 0.00 | 0.00 | 0.00 | 93 | 1016.1 |
| 20260902063040 | 76 | 126 | 0.0 | 0.0 | 0.00 | 0.00 | 0.00 | 93 | 1016.0 |
| 20260902062541 | 77 | 126 | 0.0 | 0.0 | 0.00 | 0.00 | 0.00 | 93 | 1016.0 |
| 20260902062039 | 77 | 126 | 0.0 | 0.0 | 0.00 | 0.00 | 0.00 | 93 | 1016.2 |
| 20260902061545 | 77 | 126 | 0.0 | 0.0 | 0.00 | 0.00 | 0.00 | 93 | 1016.1 |
| 20260902061043 | 77 | 126 | 0.0 | 0.0 | 0.00 | 0.00 | 0.00 | 92 | 1016.2 |
| 20260902060539 | 77 | 126 | 0.0 | 0.0 | 0.00 | 0.00 | 0.00 | 92 | 1016.1 |
| 20260902060043 | 77 | 126 | 0.0 | 0.0 | 0.00 | 0.00 | 0.00 | 92 | 1015.9 |
| 20260902055539 | 77 | 126 | 0.0 | 0.0 | 0.00 | 0.00 | 0.00 | 92 | 1016.1 |
| 20260902055036 | 77 | 126 | 0.0 | 0.0 | 0.00 | 0.00 | 0.00 | 92 | 1016.3 |
| 20260902054535 | 77 | 126 | 0.0 | 0.0 | 0.00 | 0.00 | 0.00 | 92 | 1016.5 |
| 20260902054037 | 77 | 126 | 0.0 | 0.0 | 0.00 | 0.00 | 0.00 | 92 | 1016.4 |
| 20260902053534 | 77 | 126 | 0.0 | 0.0 | 0.00 | 0.00 | 0.00 | 92 | 1016.3 |
| 20260902053038 | 77 | 126 | 0.0 | 0.0 | 0.00 | 0.00 | 0.00 | 92 | 1016.3 |
| 20260902052535 | 77 | 126 | 0.0 | 0.0 | 0.00 | 0.00 | 0.00 | 92 | 1016.4 |
| 20260902052033 | 77 | 126 | 0.0 | 0.0 | 0.00 | 0.00 | 0.00 | 92 | 1016.4 |
| 20260902051533 | 77 | 126 | 0.0 | 0.0 | 0.00 | 0.00 | 0.00 | 92 | 1016.4 |
| 20260902051032 | 77 | 126 | 0.0 | 0.0 | 0.00 | 0.00 | 0.00 | 92 | 1016.5 |
| 20260902050532 | 77 | 126 | 0.0 | 0.0 | 0.00 | 0.00 | 0.00 | 92 | 1016.4 |
| 20260902050032 | 77 | 126 | 0.0 | 0.0 | 0.00 | 0.00 | 0.00 | 92 | 1016.5 |
| 20260902045533 | 78 | 126 | 0.0 | 0.0 | 0.00 | 0.00 | 0.00 | 92 | 1016.5 |
| 20260902045030 | 78 | 126 | 0.0 | 0.0 | 0.00 | 0.00 | 0.00 | 92 | 1016.7 |
| 20260902044530 | 78 | 126 | 0.0 | 0.0 | 0.00 | 0.00 | 0.00 | 92 | 1016.7 |
| 20260902044030 | 78 | 126 | 0.0 | 0.0 | 0.00 | 0.00 | 0.00 | 92 | 1016.7 |
| 20260902043528 | 78 | 126 | 0.0 | 0.0 | 0.00 | 0.00 | 0.00 | 92 | 1016.6 |
| 20260902043029 | 78 | 126 | 0.0 | 0.0 | 0.00 | 0.00 | 0.00 | 91 | 1016.8 |
| 20260902042528 | 78 | 126 | 0.0 | 0.0 | 0.00 | 0.00 | 0.00 | 91 | 1016.8 |
| 20260902042028 | 78 | 126 | 0.0 | 0.0 | 0.00 | 0.00 | 0.00 | 91 | 1016.8 |
| 20260902041528 | 78 | 126 | 0.0 | 0.0 | 0.00 | 0.00 | 0.00 | 91 | 1016.8 |
| 20260902041027 | 78 | 126 | 0.0 | 0.0 | 0.00 | 0.00 | 0.00 | 91 | 1016.8 |
| 20260902040528 | 78 | 126 | 0.0 | 0.0 | 0.00 | 0.00 | 0.00 | 91 | 1016.8 |
| 20260902040024 | 78 | 126 | 0.0 | 0.0 | 0.00 | 0.00 | 0.00 | 91 | 1016.9 |
| 20260902035523 | 78 | 126 | 0.0 | 0.0 | 0.00 | 0.00 | 0.00 | 91 | 1016.8 |
| 20260902035023 | 78 | 126 | 0.0 | 0.0 | 0.00 | 0.00 | 0.00 | 91 | 1016.9 |
| 20260902034523 | 78 | 126 | 0.0 | 0.0 | 0.00 | 0.00 | 0.00 | 91 | 1016.9 |
| 20260902034025 | 79 | 126 | 0.0 | 0.0 | 0.00 | 0.00 | 0.00 | 91 | 1017.0 |
| 20260902033523 | 79 | 126 | 0.0 | 0.0 | 0.00 | 0.00 | 0.00 | 91 | 1017.1 |
| 20260902033034 | 79 | 126 | 0.0 | 0.0 | 0.00 | 0.00 | 0.00 | 91 | 1017.2 |
| 20260902032526 | 79 | 126 | 0.0 | 0.0 | 0.00 | 0.00 | 0.00 | 91 | 1017.2 |
| 20260902032022 | 79 | 126 | 0.0 | 0.0 | 0.00 | 0.00 | 0.00 | 91 | 1017.1 |
| 20260902031522 | 79 | 126 | 0.0 | 0.0 | 0.00 | 0.00 | 0.00 | 91 | 1017.2 |
| 20260902031022 | 79 | 126 | 0.0 | 0.0 | 0.00 | 0.00 | 0.00 | 91 | 1017.3 |
| 20260902030521 | 79 | 126 | 0.0 | 0.0 | 0.00 | 0.00 | 0.00 | 90 | 1017.3 |
| 20260902030022 | 79 | 126 | 0.0 | 0.0 | 0.00 | 0.00 | 0.00 | 90 | 1017.4 |
| 20260902025521 | 79 | 126 | 0.0 | 0.0 | 0.00 | 0.00 | 0.00 | 90 | 1017.4 |
| 20260902025028 | 79 | 126 | 0.0 | 0.0 | 0.00 | 0.00 | 0.00 | 90 | 1017.4 |
| 20260902024520 | 79 | 126 | 0.0 | 0.0 | 0.00 | 0.00 | 0.00 | 90 | 1017.5 |
| 20260902024020 | 80 | 126 | 0.0 | 0.0 | 0.00 | 0.00 | 0.00 | 90 | 1017.5 |
| 20260902023523 | 80 | 126 | 0.0 | 0.0 | 0.00 | 0.00 | 0.00 | 90 | 1017.5 |
| 20260902023021 | 80 | 126 | 0.0 | 0.0 | 0.00 | 0.00 | 0.00 | 90 | 1017.5 |
| 20260902022521 | 80 | 126 | 0.0 | 0.0 | 0.00 | 0.00 | 0.00 | 90 | 1017.6 |
| 20260902022020 | 80 | 126 | 0.0 | 0.0 | 0.00 | 0.00 | 0.00 | 90 | 1017.5 |
| 20260902021520 | 80 | 126 | 0.0 | 0.0 | 0.00 | 0.00 | 0.00 | 90 | 1017.4 |
| 20260902021021 | 80 | 126 | 0.0 | 0.0 | 0.00 | 0.00 | 0.00 | 90 | 1017.3 |
| 20260902020523 | 80 | 126 | 0.0 | 0.0 | 0.00 | 0.00 | 0.00 | 89 | 1017.2 |
| 20260902020021 | 80 | 126 | 0.0 | 0.0 | 0.00 | 0.00 | 0.00 | 89 | 1017.2 |
| 20260902015519 | 80 | 126 | 0.0 | 0.0 | 0.00 | 0.00 | 0.00 | 89 | 1017.2 |
| 20260902015022 | 80 | 126 | 0.0 | 0.0 | 0.00 | 0.00 | 0.00 | 89 | 1017.1 |
| 20260902014532 | 80 | 126 | 0.0 | 0.0 | 0.00 | 0.00 | 0.00 | 89 | 1017.2 |
| 20260902014023 | 80 | 126 | 0.0 | 0.0 | 0.00 | 0.00 | 0.00 | 89 | 1017.2 |
| 20260902013518 | 81 | 126 | 0.0 | 0.0 | 0.00 | 0.00 | 0.00 | 88 | 1017.0 |
| 20260902013018 | 81 | 126 | 0.0 | 0.0 | 0.00 | 0.00 | 0.00 | 88 | 1017.0 |
| 20260902012517 | 81 | 126 | 0.0 | 0.0 | 0.00 | 0.00 | 0.00 | 88 | 1017.0 |
| 20260902012017 | 81 | 126 | 0.0 | 0.0 | 0.00 | 0.00 | 0.00 | 88 | 1017.0 |
| 20260902011531 | 81 | 126 | 0.0 | 0.0 | 0.00 | 0.00 | 0.00 | 88 | 1017.1 |
| 20260902011016 | 81 | 126 | 0.0 | 0.0 | 0.00 | 0.00 | 0.00 | 87 | 1016.9 |